Content
SEND FEEDBACK

Daily
Averages
Monthly
Summary
United States of America

YIGO, GUAM


Home > North America > United States > Guam
Elevation: 530 feet     Latitude: 13 32N     Longitude: 144 53E

WEATHER
 
SELECT A DAY
Number of Records: 213,928;   Date Range: 1/1/95 - 10/24/14
 
SHARE

PRINT THIS DATA

[ ← Previous Day ]
WEATHER ALMANAC - JANUARY 24, 2013
[ Next Day → ]
[ °C ]   °F
Weather ElementAverageHighLow
Temperature78 °F84.9 °F (3:54 pm)72 °F (1:54 am)
Dewpoint66.6 °F68 °F (1:54 am)64 °F (5:54 pm)
Humidity68.8 %87 % (1:54 am)53 % (11:54 am)
Barometer29.89 in29.94 in (8:54 am)29.83 in (2:54 pm)
Wind Speed7.2 mph11.5 mph (1:54 pm)
Weather ElementAverage
Visibility10 mi
Wind DirectionENE (52.6 °)

Weather ElementTotal
Precipitation---
Cooling Degree Days13.5 (Base 65)
Growing Degree Days28.5 (Base 50)
Averaged from 23 records on January 24, 2013
WEATHER CONDITIONS BREAKOUT
WIND DIRECTION BREAKOUT
WEATHER BY HOUR - JANUARY 24, 2013
[ °C ]   °F
Local TimeTemperatureDewpointHumidityBarometerVisibilityWind DirectionWind SpeedGust SpeedPrecipitationEventsConditions
1:54 AM72.0 °F68.0 °F87 %29.90 in10.0 miNE (40°)4.6 mphClear
2:54 AM75.9 °F68.0 °F76 %29.88 in10.0 miENE (60°)6.9 mphClear
3:54 AM73.9 °F68.0 °F82 %29.88 in10.0 miENE (60°)4.6 mphClear
4:54 AM73.0 °F68.0 °F84 %29.89 in10.0 miNE (40°)5.8 mphClear
5:54 AM73.0 °F68.0 °F84 %29.90 in10.0 miENE (60°)5.8 mphClear
6:54 AM72.0 °F68.0 °F87 %29.91 in10.0 miENE (60°)4.6 mphClear
7:54 AM75.9 °F68.0 °F76 %29.93 in10.0 miENE (60°)8.1 mphPartly Cloudy
8:54 AM80.1 °F68.0 °F67 %29.94 in10.0 miENE (60°)6.9 mphClear
9:54 AM82.9 °F66.9 °F58 %29.94 in10.0 miENE (60°)10.4 mphPartly Cloudy
10:54 AM82.9 °F66.0 °F56 %29.93 in10.0 miENE (70°)6.9 mphClear
11:54 AM84.0 °F64.9 °F53 %29.91 in10.0 miNE (50°)9.2 mphPartly Cloudy
12:54 PM84.0 °F66.0 °F55 %29.88 in10.0 miENE (60°)10.4 mphScattered Clouds
1:54 PM82.0 °F66.9 °F60 %29.86 in10.0 miENE (70°)11.5 mphScattered Clouds
2:54 PM82.9 °F66.9 °F58 %29.83 in10.0 miENE (60°)11.5 mphScattered Clouds
3:54 PM84.9 °F66.0 °F53 %29.83 in10.0 miNorth (10°)6.9 mphScattered Clouds
4:54 PM82.9 °F64.9 °F54 %29.85 in10.0 miNE (40°)9.2 mphPartly Cloudy
5:54 PM80.1 °F64.0 °F58 %29.85 in10.0 miNE (40°)11.5 mphClear
6:54 PM78.1 °F66.0 °F66 %29.86 in10.0 miNE (50°)4.6 mphClear
7:54 PM75.9 °F66.0 °F71 %29.87 in10.0 miENE (60°)5.8 mphPartly Cloudy
8:54 PM75.9 °F64.9 °F69 %29.89 in10.0 miENE (60°)6.9 mphPartly Cloudy
9:54 PM73.9 °F66.0 °F76 %29.90 in10.0 miNE (40°)5.8 mphPartly Cloudy
10:54 PM73.9 °F66.0 °F76 %29.91 in10.0 miNE (50°)4.6 mphPartly Cloudy
11:54 PM75.0 °F66.9 °F76 %29.91 in10.0 miNE (50°)3.5 mphScattered Clouds
Hourly data recorded from PGUM, located miles away from Yigo, Guam







STORIES FROM OUR PARTNERS